This demonstration page uses our WeatherBlox Daily Observations layout. Learn more.

Left ArrowRight Arrow

41.55636, -103.73856

Hourly Observations for May 21, 2022

Temp ( °F °C ) Dew Point ( °F °C ) Humidity (%) Winds ( mph kmh ) Pressure ( in mb ) Visibility ( mi km ) Precip ( " mm )
12:58 am 00:58 Cloudy 34 0.9 27 -2.9 76 76 NNW 10 17 30.13 1020 10 16 0.00 0.00
1:58 am 01:58 Cloudy 30 -1.1 27 -2.8 88 88 NW 8 13 30.15 1021 10 16 0.00 0.00
2:58 am 02:58 Clear 28 -2 25 -3.7 88 88 NW 7 11 30.16 1021 10 16 0.00 0.00
3:58 am 03:58 Clear 26 -3.1 24 -4.4 91 91 SW 5 7 30.18 1022 10 16 0.00 0.00
4:58 am 04:58 Clear 25 -3.7 23 -4.8 92 92 SW 7 11 30.20 1023 10 16 0.00 0.00
5:58 am 05:58 Sunny 26 -3.6 22 -5.3 88 88 SSW 5 7 30.22 1024 10 16 0.00 0.00
6:58 am 06:58 Sunny 29 -1.4 26 -3.1 88 88 SW 3 6 30.22 1024 10 16 0.00 0.00
7:58 am 07:58 Sunny 36 2 28 -2.5 72 72 WNW 5 7 30.22 1023 10 16 0.00 0.00
8:58 am 08:58 Sunny 40 4.7 26 -3.1 57 57 NW 6 9 30.22 1023 10 16 0.00 0.00
9:58 am 09:58 Cloudy 42 5.5 24 -4.4 49 49 WNW 9 15 30.22 1023 10 16 0.00 0.00
10:58 am 10:58 Cloudy 42 5.8 25 -3.8 50 50 WNW 13 20 30.23 1024 10 16 0.00 0.00
11:58 am 11:58 Mostly Cloudy 44 6.8 23 -4.9 43 43 NNE 7 11 30.24 1024 10 16 0.00 0.00
12:58 pm 12:58 Mostly Cloudy 48 8.9 20 -6.5 33 33 NNW 16 26 30.22 1023 10 16 0.00 0.00
1:58 pm 13:58 Mostly Cloudy 48 9.1 18 -7.6 30 30 NW 8 13 30.22 1023 10 16 0.00 0.00
2:58 pm 14:58 Mostly Cloudy 50 10.2 18 -8 27 27 NW 10 17 30.22 1023 10 16 0.00 0.00
3:58 pm 15:58 Partly Cloudy 50 10.1 18 -7.6 28 28 WNW 10 17 30.23 1024 10 16 0.00 0.00
4:58 pm 16:58 Mostly Sunny 53 11.6 19 -7.3 26 26 NNW 14 22 30.21 1023 10 16 0.00 0.00
5:58 pm 17:58 Mostly Sunny 52 11.2 19 -7.1 27 27 NW 13 20 30.23 1024 10 16 0.00 0.00
6:58 pm 18:58 Sunny 51 10.7 18 -8 26 26 NW 12 19 30.22 1023 10 16 0.00 0.00
7:58 pm 19:58 Sunny 48 8.8 21 -6.2 34 34 N 3 6 30.23 1024 10 16 0.00 0.00
8:58 pm 20:58 Clear 43 6.3 19 -7 38 38 NNE 7 11 30.26 1025 10 16 0.00 0.00
9:58 pm 21:58 Clear 42 5.4 20 -6.5 42 42 NNE 5 7 30.28 1026 10 16 0.00 0.00
10:58 pm 22:58 Clear 40 4.4 22 -5.7 48 48 ESE 7 11 30.30 1026 10 16 0.00 0.00
11:58 pm 23:58 Clear 37 2.9 23 -5 56 56 ESE 12 19 30.31 1027 10 16 0.00 0.00

Powered by AerisWeather